Dewpoint
68 70 70 69 69 70 70 70 69 69 67 67 67 70 70 70 69 68 68 67 67 65 65 64 64 64 66 68 67 65 64 65 66 67 67 67 66 67 68 68 66 64 67
68 70 70 70 70 70 70 70 70 70 69 69 69 69 70 69 69 69 68 67 66 65 64 65 63 63 64 66 67 66 66 67 66 66 67 67 67 67 68 68 67 67 67
68 69 69 70 70 70 70 70 70 70 70 69 67 67 67 68 67 67 66 66 65 65 65 64 64 64 63 63 65 65 66 66 66 66 65 66 66 67 67 68 68 66 64
69 69 69 70 70 69 69 69 70 70 70 69 68 67 66 66 67 67 67 66 66 67 65 64 65 65 65 65 63 64 66 66 66 65 64 66 66 67 67 67 66 65 65
68 69 70 70 70 69 69 69 69 69 69 69 70 68 67 67 67 67 67 67 68 67 67 66 66 66 66 65 65 64 66 65 64 64 64 64 66 67 65 65 65 65 65
67 68 69 69 69 69 69 69 69 69 69 69 69 69 68 68 68 68 69 68 68 68 67 67 67 68 67 67 65 65 65 64 62 62 64 65 65 68 66 66 67 67 67
68 68 69 70 69 69 69 69 69 69 69 69 68 69 69 68 68 68 69 69 68 68 68 67 67 66 67 67 66 66 64 62 63 63 62 63 65 66 66 66 66 67 67
67 68 69 69 69 69 69 69 69 69 69 69 68 68 68 68 68 67 68 68 68 68 68 68 67 66 65 67 66 66 63 61 63 63 63 63 64 66 66 65 66 66 66
65 65 66 67 68 68 68 67 68 68 68 68 68 67 68 68 68 67 67 67 67 68 68 68 67 67 65 65 67 65 62 60 63 64 65 65 66 66 66 65 66 67 66
55 54 57 61 65 66 66 66 67 67 67 67 67 67 67 67 67 67 67 67 67 66 67 67 67 67 66 66 67 64 61 59 62 65 65 65 66 67 66 66 65 66 66
45 45 44 46 54 59 61 62 64 62 62 62 63 64 65 66 66 66 67 67 67 66 66 66 67 66 66 66 66 64 61 59 59 64 65 65 66 66 65 65 64 64 65
42 45 46 46 45 45 49 53 55 51 50 52 54 56 59 63 64 64 64 65 66 66 66 65 65 65 66 64 64 63 61 59 58 63 64 65 66 66 66 65 65 66 66
41 43 46 47 48 46 46 48 51 50 49 50 53 53 56 59 62 64 64 64 65 65 66 66 65 65 65 64 64 63 61 59 59 62 64 64 66 65 64 64 65 65 66
39 40 42 45 49 48 48 47 50 50 49 48 50 51 49 54 59 61 62 63 64 65 65 66 66 65 65 65 63 63 62 61 60 60 63 64 64 66 64 65 65 65 65
36 39 41 43 44 50 48 48 48 49 49 49 49 50 50 51 55 59 61 62 63 64 64 64 65 65 64 64 64 63 63 62 61 61 62 63 64 65 65 64 64 64 64
35 36 38 40 42 46 50 49 49 49 50 50 51 51 51 51 52 55 59 61 62 63 64 64 64 64 64 65 64 64 63 63 62 62 61 62 62 63 65 65 64 63 64
33 34 36 37 39 42 44 51 51 51 51 51 52 52 53 53 53 53 55 58 62 63 64 64 64 64 64 63 63 64 64 63 63 62 62 61 60 60 62 65 65 64 64
31 32 34 35 36 38 40 45 51 52 52 52 53 53 53 53 54 54 54 55 57 60 63 63 62 62 62 62 61 61 63 64 63 62 62 62 61 60 60 60 62 64 63
27 29 31 33 34 36 37 40 44 46 50 52 53 53 53 54 54 54 54 55 55 57 59 61 61 60 60 60 60 60 61 62 63 63 62 60 60 60 61 60 60 60 62
22 26 27 30 32 33 36 36 37 43 42 47 43 44 50 52 53 54 55 55 55 57 58 59 59 60 59 57 57 58 60 60 62 62 62 61 60 59 59 60 60 61 61
21 21 23 27 29 30 33 34 34 37 38 39 38 39 41 41 48 52 54 55 55 55 56 57 56 56 56 58 56 54 56 59 59 61 61 61 60 60 59 60 61 62 61
17 19 21 22 25 26 30 33 32 35 36 38 37 37 38 39 43 50 51 52 54 55 55 55 55 55 55 56 54 53 49 51 56 58 59 60 60 60 59 59 60 61 62
15 16 17 18 21 24 25 28 29 30 31 32 34 36 37 37 39 40 45 50 52 53 54 55 55 55 53 55 57 51 49 46 51 54 54 56 57 59 60 60 60 60 60
14 15 16 16 18 17 23 24 24 24 26 28 33 34 34 36 37 39 40 44 50 52 53 54 54 54 54 52 54 56 55 52 50 48 53 55 56 57 58 59 59 59 60
14 13 14 14 16 16 17 21 23 24 24 27 29 30 32 34 34 37 39 39 42 48 52 53 53 53 53 53 52 53 53 54 53 51 45 49 53 55 56 57 57 58 59
16 13 13 13 14 15 16 17 19 21 22 22 24 25 30 32 33 35 37 38 39 41 45 51 53 53 53 52 52 52 51 50 50 50 49 49 49 50 52 54 56 57 58
Wind_Speed
4 4 5 5 8 11 11 12 13 12 12 11 12 13 13 14 14 13 13 13 13 13 13 13 13 11 11 14 15 15 15 14 13 12 11 13 13 14 15 16 14 17 17
8 6 5 6 8 11 11 11 13 12 11 10 10 11 11 11 11 11 11 10 10 11 12 13 13 13 12 12 14 13 13 12 12 11 12 9 10 12 13 13 14 17 17
8 6 6 7 8 9 10 10 11 11 11 10 10 10 9 9 8 9 9 9 9 10 11 12 12 13 13 12 12 13 12 11 10 9 9 8 7 11 13 15 15 16 16
8 6 6 7 7 8 8 9 10 9 9 9 9 9 9 9 8 8 9 8 7 10 11 11 11 11 12 12 12 12 11 11 10 7 6 6 6 11 14 16 15 16 16
7 6 5 6 7 6 6 6 5 6 5 6 6 8 8 8 8 7 6 7 6 10 11 10 10 10 10 10 11 11 10 9 8 7 5 5 5 11 16 16 16 15 14
6 5 5 5 6 6 6 6 5 4 3 3 2 4 5 7 8 6 4 4 8 10 10 10 9 8 8 7 9 10 9 6 4 4 3 4 4 5 12 15 13 13 13
4 3 3 3 3 4 4 4 4 4 3 1 1 2 4 3 4 6 6 7 7 8 9 10 9 8 7 6 8 9 7 4 1 3 2 1 0 2 10 13 12 12 13
4 3 3 3 3 3 3 3 3 3 2 2 1 1 2 3 3 3 5 6 7 7 8 8 10 8 7 7 9 9 6 4 2 2 3 3 4 5 8 10 12 13 13
6 5 5 4 4 3 3 3 3 3 3 3 4 4 3 3 3 4 5 5 7 7 7 8 8 9 8 8 7 7 6 4 2 2 1 1 4 9 10 12 14 14 15
7 6 6 5 4 3 3 2 2 3 4 5 5 5 5 6 5 4 5 6 7 8 8 9 8 8 8 8 8 7 5 3 1 3 2 1 3 5 15 16 14 14 16
19 18 16 15 11 7 5 5 3 3 3 4 4 4 4 3 4 4 5 6 7 9 10 10 9 8 8 8 8 8 6 4 3 3 3 2 2 2 11 12 12 11 11
25 24 21 18 14 13 11 7 5 4 4 4 4 4 4 4 4 4 5 6 7 8 9 11 11 10 9 6 6 7 5 4 4 4 3 2 2 5 1 12 12 10 10
17 19 23 22 19 13 9 8 7 5 5 4 5 5 5 5 5 5 4 4 4 5 7 8 10 10 10 8 7 7 6 5 5 5 4 4 3 8 12 10 11 11 10
23 22 23 23 21 17 10 9 7 5 6 7 7 7 5 5 5 6 6 6 5 4 7 6 7 10 11 10 9 8 8 6 6 6 6 6 5 5 9 10 9 10 9
25 24 24 22 21 20 14 8 7 9 7 5 6 8 7 7 6 6 6 6 6 5 6 7 7 8 10 10 10 10 10 9 8 6 6 8 8 8 8 10 12 12 12
25 26 25 25 23 19 17 14 9 7 8 7 7 5 5 7 7 7 8 7 7 6 6 7 9 8 9 8 11 11 12 11 11 10 8 8 11 11 11 10 11 12 13
22 23 25 25 24 23 19 17 13 10 8 7 8 8 7 5 8 9 8 8 7 6 6 6 8 6 7 6 9 10 12 13 12 12 10 9 9 13 13 13 14 14 13
23 26 24 24 26 24 23 17 15 15 12 11 11 10 10 9 7 7 9 9 8 7 6 5 4 4 6 7 8 8 9 11 13 13 11 11 10 9 11 14 14 16 16
23 24 26 25 27 25 23 19 17 17 16 17 16 15 17 14 11 8 8 10 9 7 7 7 6 7 8 8 9 9 9 10 12 11 14 14 12 10 10 14 15 17 21
23 22 24 24 26 25 20 19 16 15 17 16 17 18 20 18 17 14 10 9 9 8 7 6 7 8 10 11 11 11 9 9 11 12 14 14 14 14 14 13 12 16 22
23 25 26 25 25 24 23 25 18 20 16 15 16 19 20 20 20 17 13 13 9 9 11 8 5 8 8 6 7 11 13 11 11 11 12 13 14 15 14 12 12 11 11
22 22 23 25 24 23 19 18 12 18 11 11 15 17 19 20 19 17 16 16 14 12 12 11 9 5 5 6 6 6 6 5 11 14 11 12 14 11 13 13 11 12 13
22 22 22 23 21 20 22 17 18 12 15 14 19 18 20 18 18 17 17 17 16 14 14 13 12 12 10 8 12 7 3 8 2 2 9 11 13 10 10 11 13 13 14
19 18 19 20 20 20 19 18 19 17 19 19 17 18 21 19 18 15 16 17 17 15 15 14 13 14 13 14 7 12 11 3 4 3 3 5 6 8 11 9 9 10 10
16 18 18 18 19 19 19 17 17 17 16 17 17 22 20 20 20 19 15 16 16 17 19 18 16 15 15 15 14 6 13 10 11 12 13 9 4 6 7 8 8 8 9
16 17 18 20 20 20 19 19 17 18 19 19 20 20 18 18 19 18 18 16 14 15 18 22 21 18 17 17 15 15 14 8 12 14 15 13 12 9 7 7 8 8 7
Wind_Direction
186 151 122 126 126 127 121 114 110 106 105 105 105 107 108 107 107 106 102 97 96 99 102 103 101 99 94 93 99 95 93 91 88 84 84 92 104 105 103 103 113 103 100
153 146 120 128 127 127 124 116 120 113 109 109 110 102 104 101 100 103 106 104 104 106 107 107 106 104 99 94 94 99 97 91 87 83 81 84 111 115 114 114 110 107 104
134 128 114 118 126 131 130 122 109 117 120 118 117 116 114 113 112 112 110 114 115 116 111 109 109 112 107 104 104 107 104 94 87 87 88 93 122 135 138 120 112 113 108
127 125 119 108 114 132 131 133 132 128 124 129 127 122 123 126 126 122 121 124 122 124 116 115 111 112 113 114 113 114 110 96 81 84 98 86 108 152 134 122 120 119 119
133 132 127 107 94 95 108 112 114 119 126 128 126 134 134 134 134 131 125 126 115 128 124 124 123 122 120 122 122 118 116 101 85 82 88 82 77 152 135 130 130 128 128
134 130 131 115 103 92 83 84 94 95 98 103 115 146 158 154 154 142 114 156 139 137 139 139 135 129 131 133 133 125 121 101 94 92 84 60 71 125 143 127 125 139 131
110 92 97 104 106 100 92 82 83 81 86 101 157 174 189 204 182 155 136 141 148 153 158 159 150 143 137 141 149 135 124 84 8 198 156 108 344 119 127 130 140 133 133
93 48 33 46 55 50 53 57 59 51 34 27 345 253 254 230 232 208 176 167 168 172 176 177 167 158 148 139 155 144 137 96 88 126 180 204 227 253 161 158 158 152 143
48 35 14 11 13 21 17 16 13 8 4 353 352 347 316 296 271 241 230 214 206 193 198 196 187 171 160 158 152 152 153 122 123 140 144 235 238 246 199 182 180 166 156
24 13 357 343 341 335 325 330 346 349 348 351 354 350 341 330 320 290 263 240 232 221 208 204 204 191 176 168 169 170 170 153 154 178 205 233 286 268 228 192 195 173 166
8 2 352 345 338 332 321 318 318 332 333 328 323 323 311 297 301 302 291 279 261 241 226 218 213 206 186 181 181 182 180 210 225 221 205 242 291 300 177 193 194 183 177
357 351 355 350 338 331 322 317 305 314 324 320 315 308 292 281 276 280 280 288 282 271 251 230 223 207 194 199 193 189 207 210 225 235 240 251 242 133 174 157 162 167 173
351 354 355 349 337 321 309 308 307 309 316 312 306 314 309 294 281 273 275 267 268 267 256 248 229 216 207 201 204 205 206 211 220 235 243 260 232 180 187 178 165 167 161
6 1 354 351 348 335 309 299 289 281 312 313 315 305 301 294 286 280 273 273 265 254 258 241 244 230 221 212 211 212 214 211 215 221 230 250 246 228 196 189 182 177 178
12 5 1 359 355 347 335 318 314 319 316 300 309 320 316 304 295 293 283 275 268 259 250 256 246 236 231 225 218 220 221 222 220 221 227 227 242 237 239 218 205 201 201
11 9 5 7 2 0 3 353 337 330 325 322 320 317 320 314 311 310 304 296 283 260 246 241 242 238 244 238 236 224 233 234 232 229 224 222 225 229 233 234 232 221 215
10 7 9 9 9 13 6 5 3 355 350 344 339 336 333 332 322 316 308 303 301 302 269 250 247 234 240 237 242 243 235 238 241 241 239 233 227 229 232 235 232 230 224
13 14 9 9 9 11 12 7 8 15 13 5 354 346 343 336 333 319 310 305 312 302 287 268 258 241 230 233 248 252 252 245 241 240 244 246 238 227 227 230 242 242 234
14 13 12 11 11 7 6 10 14 12 15 14 15 9 355 345 337 325 310 301 302 293 283 279 268 257 257 250 251 248 246 254 249 244 239 237 241 241 237 230 230 250 239
18 16 15 15 12 8 7 4 8 22 19 20 11 4 360 358 349 335 319 306 302 287 268 251 259 258 258 262 265 255 248 250 252 241 242 240 238 237 240 242 242 241 235
18 17 16 13 12 12 8 6 1 359 3 9 9 6 1 350 344 344 334 322 306 280 272 259 251 249 256 247 263 264 260 246 242 242 237 235 236 236 237 236 229 236 236
16 13 12 12 11 13 8 3 355 331 348 339 354 353 355 352 347 343 336 326 311 295 271 259 243 242 248 215 227 246 276 251 233 237 241 242 243 240 236 235 236 237 238
13 9 7 7 5 7 5 358 358 355 352 352 346 339 341 341 345 344 340 328 314 297 275 257 239 230 241 233 218 221 209 241 293 200 237 243 244 245 248 248 243 243 241
5 2 1 1 359 1 359 1 4 357 341 329 324 322 326 327 330 338 342 335 319 301 279 260 247 232 228 240 227 236 241 221 227 278 233 223 213 234 248 251 251 251 251
357 355 352 353 353 352 354 352 348 342 333 323 324 325 325 324 326 326 331 334 327 325 292 269 249 237 229 234 222 207 230 230 240 247 263 260 233 207 225 239 239 242 242
349 352 350 348 345 345 344 343 339 331 326 326 324 322 321 320 318 317 319 318 318 316 325 292 261 238 229 227 228 220 216 205 217 220 236 244 256 262 248 237 243 242 255